• Em Portugal
  • Lista de países
  • Para 7 dias
  • Temperatura da água
  • Mapas de satélite
  • Mapa do tempo
  • Widgets de tempo
  • user-avatar
    Iniciar Sessão

    Previsão horária em Salvador

    Hoje, 20 Setembro, Quarta-feira

    Tempo Temperatura Precipitação Vento Pressão Humidade
    00:00 +21°C° 0,1 mm 5 m/s 761 mmHg 95%
    01:00 +21°C° 0,1 mm 4 m/s 760 mmHg 95%
    02:00 +20°C° 0,1 mm 4 m/s 760 mmHg 95%
    03:00 +20°C° 0,1 mm 4 m/s 760 mmHg 95%
    04:00 +21°C° 0,1 mm 4 m/s 760 mmHg 95%
    05:00 +21°C° 0,1 mm 4 m/s 760 mmHg 95%
    06:00 +21°C° 0,1 mm 4 m/s 761 mmHg 95%
    07:00 +22°C° 0,1 mm 4 m/s 761 mmHg 89%
    08:00 +25°C° 0,1 mm 4 m/s 761 mmHg 82%
    09:00 +27°C° 0,1 mm 4 m/s 762 mmHg 76%
    10:00 +28°C° 0,1 mm 4 m/s 762 mmHg 70%
    11:00 +29°C° 0,1 mm 4 m/s 761 mmHg 63%
    12:00 +30°C° 0,1 mm 4 m/s 761 mmHg 57%
    13:00 +29°C° 0 mm 5 m/s 760 mmHg 58%
    14:00 +29°C° 0 mm 5 m/s 760 mmHg 59%
    15:00 +29°C° 0 mm 5 m/s 760 mmHg 60%
    16:00 +27°C° 0,1 mm 5 m/s 760 mmHg 69%
    17:00 +25°C° 0,1 mm 5 m/s 760 mmHg 77%
    18:00 +23°C° 0,1 mm 5 m/s 760 mmHg 86%
    19:00 +22°C° 0,2 mm 6 m/s 760 mmHg 89%
    20:00 +22°C° 0,2 mm 6 m/s 761 mmHg 92%
    21:00 +22°C° 0,2 mm 6 m/s 761 mmHg 95%
    22:00 +22°C° 0,3 mm 6 m/s 761 mmHg 95%
    23:00 +22°C° 0,3 mm 6 m/s 761 mmHg 95%

    Amanhã, 21 Setembro, Quinta-feira

    Tempo Temperatura Precipitação Vento Pressão Humidade
    00:00 +22°C° 0,3 mm 6 m/s 761 mmHg 95%
    01:00 +22°C° 0,3 mm 6 m/s 760 mmHg 95%
    02:00 +22°C° 0,3 mm 6 m/s 760 mmHg 95%
    03:00 +22°C° 0,3 mm 6 m/s 760 mmHg 95%
    04:00 +22°C° 0,2 mm 6 m/s 760 mmHg 95%
    05:00 +21°C° 0,2 mm 6 m/s 760 mmHg 95%
    06:00 +21°C° 0,2 mm 6 m/s 760 mmHg 96%
    07:00 +23°C° 0,2 mm 6 m/s 761 mmHg 91%
    08:00 +24°C° 0,2 mm 6 m/s 761 mmHg 86%
    09:00 +26°C° 0,2 mm 6 m/s 762 mmHg 81%
    10:00 +27°C° 0,2 mm 6 m/s 761 mmHg 76%
    11:00 +27°C° 0,2 mm 6 m/s 761 mmHg 71%
    12:00 +28°C° 0,2 mm 5 m/s 761 mmHg 66%
    13:00 +28°C° 0 mm 5 m/s 760 mmHg 66%
    14:00 +28°C° 0 mm 5 m/s 760 mmHg 65%
    15:00 +28°C° 0 mm 5 m/s 759 mmHg 65%
    16:00 +26°C° 0 mm 5 m/s 759 mmHg 72%
    17:00 +25°C° 0 mm 5 m/s 760 mmHg 79%
    18:00 +22°C° 0 mm 5 m/s 760 mmHg 86%
    19:00 +22°C° 0,1 mm 5 m/s 760 mmHg 88%
    20:00 +22°C° 0,1 mm 5 m/s 761 mmHg 91%
    21:00 +21°C° 0,1 mm 5 m/s 761 mmHg 93%
    22:00 +21°C° 0,1 mm 5 m/s 761 mmHg 94%
    23:00 +21°C° 0,1 mm 5 m/s 761 mmHg 95%

    Depois de amanhã, 22 Setembro, Sexta-feira

    Tempo Temperatura Precipitação Vento Pressão Humidade
    00:00 +21°C° 0,1 mm 5 m/s 761 mmHg 96%
    01:00 +21°C° 0,1 mm 5 m/s 760 mmHg 96%
    02:00 +21°C° 0,1 mm 4 m/s 760 mmHg 95%
    03:00 +21°C° 0,1 mm 4 m/s 759 mmHg 95%
    04:00 +21°C° 0,1 mm 4 m/s 760 mmHg 95%
    05:00 +21°C° 0,1 mm 4 m/s 760 mmHg 95%
    06:00 +21°C° 0,1 mm 4 m/s 760 mmHg 94%
    07:00 +23°C° 0,1 mm 4 m/s 761 mmHg 86%
    08:00 +25°C° 0,1 mm 5 m/s 761 mmHg 77%
    09:00 +27°C° 0,1 mm 5 m/s 761 mmHg 68%
    10:00 +28°C° 0,1 mm 5 m/s 761 mmHg 65%
    11:00 +29°C° 0,1 mm 5 m/s 761 mmHg 61%
    12:00 +29°C° 0,1 mm 5 m/s 760 mmHg 57%
    13:00 +29°C° 0,1 mm 5 m/s 760 mmHg 59%
    14:00 +28°C° 0,1 mm 5 m/s 759 mmHg 61%
    15:00 +28°C° 0,1 mm 6 m/s 759 mmHg 64%
    16:00 +27°C° 0,1 mm 5 m/s 759 mmHg 71%
    17:00 +25°C° 0,1 mm 5 m/s 759 mmHg 78%
    18:00 +23°C° 0,1 mm 5 m/s 759 mmHg 86%
    19:00 +22°C° 0,1 mm 5 m/s 760 mmHg 87%
    20:00 +22°C° 0,1 mm 5 m/s 760 mmHg 89%
    21:00 +22°C° 0,1 mm 5 m/s 761 mmHg 90%
    22:00 +21°C° 0,1 mm 5 m/s 761 mmHg 91%
    23:00 +21°C° 0,1 mm 4 m/s 760 mmHg 92%

    23 Setembro, Sábado

    Tempo Temperatura Precipitação Vento Pressão Humidade
    00:00 +21°C° 0,1 mm 4 m/s 760 mmHg 93%
    01:00 +21°C° 0,1 mm 3 m/s 759 mmHg 94%
    02:00 +20°C° 0,1 mm 3 m/s 759 mmHg 94%
    03:00 +20°C° 0,1 mm 3 m/s 759 mmHg 95%
    04:00 +20°C° 0,2 mm 3 m/s 759 mmHg 94%
    05:00 +21°C° 0,2 mm 3 m/s 759 mmHg 94%
    06:00 +21°C° 0,2 mm 3 m/s 760 mmHg 93%
    07:00 +23°C° 0,1 mm 4 m/s 760 mmHg 86%
    08:00 +26°C° 0,1 mm 4 m/s 761 mmHg 78%
    09:00 +27°C° 0,1 mm 4 m/s 761 mmHg 71%
    10:00 +28°C° 0,2 mm 4 m/s 760 mmHg 66%
    11:00 +29°C° 0,2 mm 4 m/s 760 mmHg 61%
    12:00 +30°C° 0,2 mm 4 m/s 760 mmHg 56%
    13:00 +29°C° 0,2 mm 4 m/s 759 mmHg 60%
    14:00 +29°C° 0,2 mm 5 m/s 758 mmHg 64%
    15:00 +28°C° 0,2 mm 5 m/s 758 mmHg 68%
    16:00 +26°C° 0,3 mm 5 m/s 758 mmHg 74%
    17:00 +25°C° 0,3 mm 5 m/s 759 mmHg 81%
    18:00 +23°C° 0,3 mm 5 m/s 759 mmHg 88%
    19:00 +22°C° 0,2 mm 5 m/s 759 mmHg 90%
    20:00 +22°C° 0,2 mm 5 m/s 759 mmHg 92%
    21:00 +22°C° 0,2 mm 5 m/s 760 mmHg 94%
    22:00 +21°C° 0,3 mm 5 m/s 760 mmHg 95%
    23:00 +21°C° 0,3 mm 4 m/s 759 mmHg 95%

    24 Setembro, Domingo

    Tempo Temperatura Precipitação Vento Pressão Humidade
    00:00 +21°C° 0,3 mm 4 m/s 759 mmHg 95%
    01:00 +21°C° 0,3 mm 4 m/s 759 mmHg 96%
    02:00 +21°C° 0,3 mm 4 m/s 758 mmHg 96%
    03:00 +21°C° 0,3 mm 4 m/s 758 mmHg 96%
    04:00 +21°C° 0,2 mm 4 m/s 758 mmHg 96%
    05:00 +21°C° 0,2 mm 4 m/s 759 mmHg 96%
    06:00 +21°C° 0,2 mm 4 m/s 759 mmHg 95%
    07:00 +23°C° 0,3 mm 4 m/s 759 mmHg 90%
    08:00 +25°C° 0,3 mm 4 m/s 760 mmHg 85%
    09:00 +26°C° 0,3 mm 4 m/s 760 mmHg 80%
    10:00 +26°C° 0,2 mm 4 m/s 760 mmHg 79%
    11:00 +26°C° 0,2 mm 4 m/s 759 mmHg 78%
    12:00 +27°C° 0,2 mm 4 m/s 759 mmHg 77%
    13:00 +26°C° 0,1 mm 4 m/s 758 mmHg 77%
    14:00 +26°C° 0,1 mm 4 m/s 758 mmHg 77%
    15:00 +26°C° 0,1 mm 5 m/s 757 mmHg 77%
    16:00 +25°C° 0,1 mm 4 m/s 758 mmHg 81%
    17:00 +23°C° 0,1 mm 4 m/s 758 mmHg 85%
    18:00 +23°C° 0,1 mm 4 m/s 758 mmHg 89%
    19:00 +22°C° 0 mm 4 m/s 759 mmHg 90%
    20:00 +22°C° 0 mm 4 m/s 759 mmHg 92%
    21:00 +21°C° 0 mm 4 m/s 760 mmHg 94%
    22:00 +21°C° 0,1 mm 4 m/s 759 mmHg 94%
    23:00 +21°C° 0,1 mm 4 m/s 759 mmHg 94%

    25 Setembro, Segunda-feira

    Tempo Temperatura Precipitação Vento Pressão Humidade
    00:00 +21°C° 0,1 mm 4 m/s 759 mmHg 94%
    01:00 +21°C° 0,1 mm 4 m/s 759 mmHg 95%
    02:00 +21°C° 0,1 mm 4 m/s 759 mmHg 95%
    03:00 +21°C° 0,1 mm 4 m/s 758 mmHg 95%
    04:00 +21°C° 0,2 mm 4 m/s 759 mmHg 95%
    05:00 +21°C° 0,2 mm 4 m/s 759 mmHg 95%
    06:00 +21°C° 0,2 mm 4 m/s 760 mmHg 95%
    07:00 +23°C° 0,2 mm 4 m/s 760 mmHg 90%
    08:00 +25°C° 0,2 mm 4 m/s 760 mmHg 85%
    09:00 +26°C° 0,2 mm 5 m/s 760 mmHg 80%
    10:00 +27°C° 0,1 mm 5 m/s 760 mmHg 73%
    11:00 +29°C° 0,1 mm 5 m/s 759 mmHg 65%
    12:00 +30°C° 0,1 mm 5 m/s 759 mmHg 58%
    13:00 +29°C° 0 mm 5 m/s 759 mmHg 58%
    14:00 +29°C° 0 mm 4 m/s 758 mmHg 59%
    15:00 +29°C° 0 mm 4 m/s 758 mmHg 60%
    16:00 +27°C° 0 mm 4 m/s 758 mmHg 69%
    17:00 +26°C° 0 mm 4 m/s 758 mmHg 78%
    18:00 +24°C° 0 mm 3 m/s 758 mmHg 87%
    19:00 +22°C° 0 mm 4 m/s 759 mmHg 89%
    20:00 +22°C° 0 mm 4 m/s 759 mmHg 91%
    21:00 +22°C° 0 mm 4 m/s 759 mmHg 93%
    22:00 +21°C° 0,1 mm 4 m/s 759 mmHg 93%
    23:00 +21°C° 0,1 mm 4 m/s 759 mmHg 94%
    Mostrar mais